TimeEST,TemperatureF,Dew PointF,Humidity,Sea Level PressureIn,VisibilityMPH,Wind Direction,Wind SpeedMPH,Gust SpeedMPH,PrecipitationIn,Events,Conditions,WindDirDegrees,DateUTC
12:48 AM,57.2,53.6,88,29.92,2.0,South,6.9,-,0.00,,Light Drizzle,190,2013-12-06 05:48:00
12:51 AM,57.0,54.0,89,29.92,2.0,South,4.6,-,0.00,,Light Drizzle,190,2013-12-06 05:51:00
1:16 AM,57.2,53.6,88,29.91,1.5,South,3.5,-,0.00,,Light Drizzle,190,2013-12-06 06:16:00
1:35 AM,57.2,53.6,88,29.90,1.2,South,3.5,-,0.00,,Light Drizzle,180,2013-12-06 06:35:00
1:51 AM,57.0,54.0,89,29.91,0.8,South,5.8,-,0.00,,Light Drizzle,190,2013-12-06 06:51:00
2:21 AM,55.4,53.6,94,29.89,0.2,South,4.6,-,0.00,Fog,Light Drizzle,180,2013-12-06 07:21:00
2:30 AM,55.4,53.6,94,29.88,0.5,South,4.6,-,0.00,Fog-Rain,Light Rain,180,2013-12-06 07:30:00
2:51 AM,55.9,54.0,93,29.88,0.2,Calm,Calm,-,0.00,Fog,Light Drizzle,0,2013-12-06 07:51:00
3:22 AM,55.4,53.6,94,29.88,0.5,Calm,Calm,-,0.01,Fog,Light Drizzle,0,2013-12-06 08:22:00
3:34 AM,55.4,53.6,94,29.88,0.2,Calm,Calm,-,0.01,Fog,Light Drizzle,0,2013-12-06 08:34:00
3:48 AM,55.4,53.6,94,29.87,0.5,Calm,Calm,-,0.01,Fog,Light Drizzle,0,2013-12-06 08:48:00
3:51 AM,55.9,53.1,90,29.87,0.2,Calm,Calm,-,0.01,Fog,Light Drizzle,0,2013-12-06 08:51:00
4:51 AM,55.9,54.0,93,29.87,0.2,Calm,Calm,-,0.00,Fog,Light Drizzle,0,2013-12-06 09:51:00
5:51 AM,55.9,54.0,93,29.88,0.2,Calm,Calm,-,0.00,Fog,Light Drizzle,0,2013-12-06 10:51:00
6:05 AM,57.2,53.6,88,29.90,0.8,NW,11.5,19.6,0.00,,Light Drizzle,320,2013-12-06 11:05:00
6:10 AM,57.2,55.4,94,29.91,2.0,NW,12.7,-,0.01,Rain,Rain,320,2013-12-06 11:10:00
6:28 AM,53.6,50.0,88,29.92,2.0,NW,17.3,23.0,0.02,Rain,Light Rain,320,2013-12-06 11:28:00
6:33 AM,53.6,48.2,82,29.91,3.0,NNW,12.7,23.0,0.03,,Light Drizzle,330,2013-12-06 11:33:00
6:51 AM,53.1,48.9,86,29.92,10.0,North,4.6,-,0.03,,Overcast,350,2013-12-06 11:51:00
7:51 AM,53.1,46.9,80,29.96,10.0,North,10.4,-,0.00,Rain,Light Rain,350,2013-12-06 12:51:00
8:19 AM,51.8,46.4,82,29.97,10.0,North,9.2,-,0.02,Rain,Light Rain,350,2013-12-06 13:19:00
8:51 AM,51.1,46.0,83,29.99,10.0,North,8.1,-,0.02,Rain,Light Rain,10,2013-12-06 13:51:00
9:28 AM,51.8,46.4,82,30.01,10.0,North,3.5,-,0.01,Rain,Light Rain,360,2013-12-06 14:28:00
9:51 AM,51.1,45.0,80,30.01,10.0,North,5.8,-,0.01,,Overcast,360,2013-12-06 14:51:00
10:05 AM,50.0,44.6,82,30.02,10.0,North,8.1,-,0.00,Rain,Light Rain,10,2013-12-06 15:05:00
10:43 AM,48.2,42.8,82,30.02,4.0,North,9.2,-,0.02,Rain,Rain,350,2013-12-06 15:43:00
10:51 AM,48.9,43.0,80,30.02,3.0,Variable,4.6,-,0.05,Rain,Heavy Rain,0,2013-12-06 15:51:00
11:22 AM,46.4,42.8,87,30.02,7.0,NE,8.1,-,0.04,Rain,Light Rain,40,2013-12-06 16:22:00
11:51 AM,46.9,42.1,83,30.03,3.0,NNE,6.9,-,0.05,Rain,Rain,30,2013-12-06 16:51:00
12:25 PM,46.4,42.8,87,30.03,4.0,North,5.8,-,0.01,Rain,Light Rain,10,2013-12-06 17:25:00
12:51 PM,46.0,42.1,86,30.03,3.0,NNW,10.4,-,0.02,Rain,Light Rain,330,2013-12-06 17:51:00
1:01 PM,46.4,41.0,81,30.03,9.0,NNW,8.1,-,0.00,Rain,Light Rain,330,2013-12-06 18:01:00
1:24 PM,46.4,39.2,76,30.03,5.0,NNW,8.1,-,0.00,,Haze,330,2013-12-06 18:24:00
1:31 PM,46.4,39.2,76,30.03,5.0,NNW,6.9,-,0.00,,Haze,340,2013-12-06 18:31:00
1:51 PM,46.9,39.0,74,30.01,5.0,North,9.2,-,0.00,Rain,Light Rain,360,2013-12-06 18:51:00
2:27 PM,46.4,39.2,76,30.03,5.0,North,5.8,-,0.01,Rain,Light Rain,360,2013-12-06 19:27:00
2:51 PM,46.9,41.0,80,30.02,5.0,North,4.6,-,0.02,Rain,Light Rain,350,2013-12-06 19:51:00
3:51 PM,46.0,42.1,86,30.03,10.0,NNE,5.8,-,0.02,Rain,Light Rain,30,2013-12-06 20:51:00
4:51 PM,46.0,41.0,83,30.06,10.0,NNE,4.6,-,0.01,Rain,Light Rain,30,2013-12-06 21:51:00
5:41 PM,46.4,41.0,81,30.07,7.0,NNE,4.6,-,0.00,Rain,Light Rain,30,2013-12-06 22:41:00
5:51 PM,46.0,41.0,83,30.07,7.0,North,3.5,-,0.02,Rain,Light Rain,10,2013-12-06 22:51:00
6:11 PM,46.4,41.0,81,30.09,10.0,Calm,Calm,-,0.00,Rain,Light Rain,0,2013-12-06 23:11:00
6:51 PM,45.0,39.0,80,30.10,10.0,NNE,8.1,-,0.03,Rain,Light Rain,20,2013-12-06 23:51:00
6:58 PM,44.6,39.2,81,30.10,4.0,NNE,6.9,-,0.01,Rain,Rain,30,2013-12-06 23:58:00
7:46 PM,42.8,37.4,81,30.09,4.0,NE,9.2,-,0.16,Rain,Rain,40,2013-12-07 00:46:00
7:51 PM,43.0,37.9,82,30.10,3.0,NNE,6.9,-,0.18,Rain,Heavy Rain,20,2013-12-07 00:51:00
8:13 PM,42.8,37.4,81,30.13,2.5,North,6.9,-,0.11,Rain,Heavy Rain,10,2013-12-07 01:13:00
8:27 PM,42.8,37.4,81,30.14,3.0,North,9.2,-,0.17,Rain,Heavy Rain,10,2013-12-07 01:27:00
8:51 PM,41.0,37.0,86,30.14,4.0,NNE,9.2,-,0.23,Rain,Rain,20,2013-12-07 01:51:00
9:51 PM,41.0,36.0,82,30.12,4.0,NNE,9.2,-,0.08,Rain,Rain,20,2013-12-07 02:51:00
10:04 PM,41.0,35.6,81,30.12,6.0,North,8.1,-,0.01,Rain,Light Rain,10,2013-12-07 03:04:00
10:22 PM,39.2,33.8,81,30.13,6.0,NNE,8.1,-,0.02,Rain,Light Rain,20,2013-12-07 03:22:00
10:29 PM,39.2,33.8,81,30.13,6.0,NNE,8.1,-,0.02,Rain,Light Rain,30,2013-12-07 03:29:00
10:51 PM,39.0,33.1,79,30.12,7.0,NNE,9.2,-,0.04,Rain,Light Rain,20,2013-12-07 03:51:00
11:51 PM,37.9,33.1,83,30.14,5.0,NNE,6.9,-,0.10,Rain,Rain,20,2013-12-07 04:51:00